Погода в Джаргалахе

Россия / Республика Саха (Якутия)     67°16′23″N   130°32′37″E
темп.,
°C
ветер,
м/с
пор.,
м/с
влажн.,
%
обл.,
%
осадки,
мм/ч
давл.,
гПа
погр.,
м
27 февраля, сб
сб2700:00−33ююз119898 0.0 103219
03:00−35юз1110095 0.0 103119
06:00−36юз1110017 0.0 103119
09:00−35юз1110024 0.0 103119
12:00−30ююз11910 0.0 1030104
15:00−30ю11933 0.0 102826
18:00−35з001000 0.0 102919
21:00−36юз011000 0.0 102819
28 февраля, вс
вс2800:00−37св0010014 0.0 102719
03:00−37зюз1110021 0.0 102619
06:00−37зюз0110014 0.0 102519
09:00−36юз119939 0.0 102519
12:00−31ююз119296 0.0 102473
15:00−30ююз119490 0.0 102236
18:00−35ююз111003 0.0 102419
21:00−36з001001 0.0 102419
1 марта, пн
пн100:00−36юз111000 0.0 102419
03:00−35юз119914 0.0 102419
06:00−33ююз119699 0.0 102419
09:00−31юз1194100 0.0 102449
12:00−29ююз119198 0.0 1023202
15:00−28ююв119199 0.1 1023258
18:00−31в0199100 0.1 102419
21:00−31всв1199100 0.1 102519
2 марта, вт
вт200:00−31св1198100 0.1 102519
03:00−31всв1198100 0.1 102419
06:00−31всв1198100 0.1 102524
09:00−31св1197100 0.1 102581
12:00−30в118998 0.0 1025248
15:00−29всв119099 0.1 1025210
18:00−35св1110072 0.0 102719
21:00−37ссв1110036 0.0 102819
3 марта, ср
ср300:00−37с1110027 0.0 102719
03:00−37сз1110037 0.0 102719
06:00−36зсз119694 0.0 102619
09:00−32с119197 0.0 102545
12:00−30ссв2392100 0.1 1022275
15:00−29св2391100 0.1 1021349
18:00−31ссв2298100 0.1 102125
21:00−33ссв3398100 0.1 102048